Vancouver, WA
on Thursday, November 8, 2012

Thursday
Previous Day Next Day
Daily Summary
 ActualAverageRecord
Temperature
Mean Temperature °F 48°F  
Max Temperature 51°F 55°F 72°F (1905)
Min Temperature 35°F 41°F 26°F (1936)
Degree Days
Heating Degree Days 22    
Month to date heating degree days 84  
Since 1 July heating degree days 403  
Cooling Degree Days 0    
Month to date cooling degree days 0  
Year to date cooling degree days 398  
Moisture
Dew Point 38°F   
Average Humidity 83    
Maximum Humidity 100    
Minimum Humidity 66    
Precipitation
Precipitation 0.00 in 0.19 in 1.33 in (1902)
Month to date precipitation 0.50 1.39  
Year to date precipitation 31.66 27.85  
Snow
Snow 0.00 in in in ()
Month to date snowfall 0.0  
Snow Depth 0.00 in   
Wind
Wind Speed 2 mph   
Max Wind Speed 8 mph   
Max Gust Speed 13 mph   
Visibility 10 miles   
Events     

Key: T is trace of precipitation, MM is missing value
Source: NWS Daily Summary
Time(PST)TemperatureDew PointHumidity Pressure Visibility Wind DirectionWind SpeedGust SpeedPrecipitationEvents Conditions
12:53 AM 37.0°F 35.1°F 93% 29.92 in 9.0 miles Calm Calm - N/A   Clear
1:39 AM 37.4°F 35.6°F 93% 29.90 in 10.0 miles Calm Calm - N/A   Scattered Clouds
1:53 AM 37.0°F 35.1°F 93% 29.90 in 10.0 miles Calm Calm - N/A   Mostly Cloudy
2:03 AM 37.4°F 35.6°F 93% 29.90 in 10.0 miles Calm Calm - N/A   Mostly Cloudy
2:53 AM 37.9°F 36.0°F 93% 29.88 in 10.0 miles Calm Calm - N/A   Overcast
3:53 AM 41.0°F 37.9°F 89% 29.86 in 10.0 miles Calm Calm - N/A   Overcast
4:53 AM 39.9°F 37.9°F 93% 29.84 in 10.0 miles Calm Calm - N/A   Overcast
5:53 AM 39.9°F 39.0°F 97% 29.82 in 10.0 miles Calm Calm - N/A   Overcast
6:30 AM 42.8°F 39.2°F 87% 29.81 in 10.0 miles Calm Calm - N/A   Overcast
6:53 AM 42.1°F 39.0°F 89% 29.81 in 10.0 miles Calm Calm - N/A   Overcast
7:32 AM 42.8°F 39.2°F 87% 29.80 in 10.0 miles Calm Calm - N/A   Mostly Cloudy
7:42 AM 42.8°F 39.2°F 87% 29.80 in 10.0 miles Calm Calm - N/A   Mostly Cloudy
7:53 AM 42.1°F 39.0°F 89% 29.81 in 10.0 miles Calm Calm - N/A   Scattered Clouds
8:18 AM 42.8°F 37.4°F 81% 29.80 in 10.0 miles Calm Calm - N/A   Mostly Cloudy
8:43 AM 42.8°F 37.4°F 81% 29.80 in 10.0 miles Calm Calm - N/A   Scattered Clouds
8:53 AM 43.0°F 37.9°F 82% 29.80 in 10.0 miles NNW 3.5 mph - N/A   Partly Cloudy
9:53 AM 44.1°F 39.0°F 82% 29.80 in 10.0 miles North 3.5 mph - N/A   Mostly Cloudy
10:53 AM 46.0°F 39.0°F 76% 29.79 in 10.0 miles Variable 4.6 mph - N/A   Mostly Cloudy
11:09 AM 46.4°F 37.4°F 71% 29.79 in 10.0 miles NW 5.8 mph - N/A   Overcast
11:53 AM 46.9°F 39.0°F 74% 29.79 in 10.0 miles NW 5.8 mph - N/A   Overcast
12:53 PM 48.9°F 39.0°F 69% 29.78 in 10.0 miles NNW 4.6 mph - N/A   Overcast
1:53 PM 48.9°F 41.0°F 74% 29.77 in 10.0 miles WSW 5.8 mph - N/A   Clear
2:53 PM 50.0°F 39.9°F 68% 29.78 in 10.0 miles West 5.8 mph - N/A   Clear
3:39 PM 48.2°F 39.2°F 71% 29.78 in 10.0 miles Calm Calm - N/A   Mostly Cloudy
3:53 PM 48.9°F 41.0°F 74% 29.79 in 10.0 miles West 4.6 mph - N/A   Mostly Cloudy
4:05 PM 48.2°F 41.0°F 76% 29.79 in 10.0 miles NW 3.5 mph - N/A   Overcast
4:53 PM 48.0°F 39.9°F 74% 29.79 in 10.0 miles Calm Calm - N/A   Partly Cloudy
5:53 PM 44.1°F 39.0°F 82% 29.79 in 10.0 miles Calm Calm - N/A   Overcast
6:37 PM 46.4°F 39.2°F 76% 29.80 in 10.0 miles Calm Calm - N/A   Scattered Clouds
6:53 PM 46.0°F 39.9°F 79% 29.80 in 10.0 miles NW 3.5 mph - N/A   Clear
7:53 PM 44.1°F 39.0°F 82% 29.81 in 10.0 miles Calm Calm - N/A   Mostly Cloudy
8:53 PM 45.0°F 39.0°F 80% 29.83 in 10.0 miles Calm Calm - N/A   Overcast
9:32 PM 42.8°F 37.4°F 81% 29.83 in 10.0 miles Calm Calm - N/A   Scattered Clouds
9:53 PM 39.9°F 37.0°F 89% 29.83 in 10.0 miles Calm Calm - N/A   Clear
10:53 PM 36.0°F 34.0°F 93% 29.83 in 10.0 miles Calm Calm - N/A   Partly Cloudy
11:53 PM 37.0°F 34.0°F 89% 29.85 in 8.0 miles Calm Calm - N/A   Clear
Moon Phase
Nov. 08 Nov. 13 Nov. 20 Nov. 28 Dec. 06
Sunrise:07:01 AM (PST) Moon Rise:12:45 AM (PST)11/8
Sunset:04:47 PM (PST) Moon Set:01:46 PM (PST)11/8

Copyright © 2014 The Weather Underground, Inc.